Location: *
(17.8639°S, 31.0297°E)
Time: 14:22:17
(UTC+00:00)

Daily predictions for brighter satellites

Satellite Brightness Start Highest point End
(mag) Time Altitude Azimuth Time Altitude Azimuth Time Altitude Azimuth
Feng Yun 1-1 Rocket 4.4 16:13:19 10° SSE 16:19:14 80° ENE 16:24:54 10° N
Cosmos 1707 3.3 16:15:50 10° NNE 16:19:26 36° E 16:23:05 10° SSE
Okean O Rocket 4.3 16:16:09 10° SSW 16:19:42 24° WSW 16:23:13 10° NW
Cosmos 1943 4.2 16:15:33 10° SSE 16:19:59 24° ESE 16:24:24 10° ENE
GPS 2-04 Rocket1 3.7 16:17:37 10° SW 16:21:12 32° SSE 16:24:53 10° E
Cosmos 2292 Rocket 3.9 16:15:36 10° N 16:21:15 88° W 16:25:29 10° S
SMAP 4.1 16:19:37 10° S 16:24:09 51° WSW 16:28:40 10° NNW
Cosmos 1939 Rocket 4.3 16:22:00 10° SE 16:24:54 18° E 16:27:44 10° NE
YAOGAN 6 2.6 16:23:12 10° S 16:26:44 84° WSW 16:30:15 10° NNW
GPS 2-18 Rocket1 3.9 16:23:37 10° W 16:27:17 45° NNW 16:31:01 10° ENE
CRRES 3.4 16:24:28 10° W 16:28:04 85° N 16:29:55 12° E
GPS 2-14 Rocket1 3.8 16:25:27 10° NW 16:29:04 31° NNE 16:32:30 11° E
Meteor 2-8 Rocket 4.5 16:24:15 10° S 16:30:24 66° E 16:36:29 10° NNE
IRS-1C Rocket 4.4 16:25:20 10° S 16:30:39 76° WSW 16:35:54 10° NNW
Cosmos 1271 Rocket 3.9 16:30:27 10° NE 16:33:17 21° E 16:36:11 10° SE
Cosmos 967 Rocket 4.5 16:27:34 10° SSW 16:33:53 80° ESE 16:40:15 10° NNE
CZ-2D R/B 4.4 16:32:28 10° SE 16:35:31 22° E 16:38:33 10° NNE
Cosmos 1766 4.2 16:32:04 10° SSW 16:35:59 55° W 16:39:52 10° N
Lacrosse 5 2.9 16:32:55 10° N 16:37:03 25° ENE 16:40:45 12° ESE
SL-16 R/B 4.3 16:32:15 10° SW 16:37:14 32° WNW 16:42:11 10° NNW
SL-4 R/B 4.4 16:38:56 10° WSW 16:41:48 21° WNW 16:44:32 10° N
CZ-4 R/B 4.4 16:40:28 10° SSE 16:44:36 60° ENE 16:48:41 10° N
NOAA 11 4.4 16:41:38 10° SSE 16:46:54 49° E 16:52:06 10° N
Cosmos 1536 Rocket 4.2 16:44:38 10° NNW 16:48:54 59° W 16:53:11 10° S
Okean-O 2.8 16:45:31 10° S 16:49:58 79° WSW 16:54:24 10° NNW
Skynet4D Del rocket 3.9 16:45:04 10° WSW 16:50:30 52° SSE 16:53:57 21° E
CZ-2C R/B 4.2 16:47:00 10° NE 16:51:12 37° ESE 16:55:23 10° S
Cosmos 1371 Rocket 4.2 16:48:35 10° NNW 16:53:46 76° WSW 16:58:58 10° S
Cosmos 1953 3.9 16:54:09 10° SSE 16:55:56 18° SE 16:55:56 18° SE
Cosmos 1603 3.6 16:53:25 10° SSW 16:59:11 83° ESE 17:04:52 10° NNE
Cosmos 1624 Rocket 4.2 16:53:59 10° NNW 16:59:18 78° WSW 17:04:40 10° S
Cosmos 1844 Rocket 3.0 16:56:07 10° NNW 17:01:42 70° WSW 17:07:18 10° S
Cosmos 2251 Rocket 3.5 16:57:57 10° SSW 17:03:16 89° ESE 17:08:35 10° NNE
YAOGAN 1 2.5 17:00:47 10° SSE 17:05:07 68° E 17:09:24 10° N
Palapa 6 Rocket 3.9 16:59:22 10° W 17:05:33 57° S 17:08:22 26° ESE
SL-24 R/B - RUBIN 2 4.3 17:04:16 10° S 17:08:03 31° ESE 17:08:03 31° ESE
Aurora 2 Rocket 4.2 17:06:41 10° N 17:09:01 17° NNE 17:09:01 17° NNE
STARLINK-52 3.3 17:08:24 10° SSW 17:11:15 46° SSE 17:11:15 46° SSE
SWIFT 2.6 17:07:31 10° W 17:11:45 61° S 17:13:06 39° ESE
Cosmos 1242 Rocket 2.6 17:08:54 10° N 17:12:26 77° W 17:16:04 10° S
GPS 2-12 Rocket1 3.0 17:09:49 10° W 17:14:34 78° NNW 17:16:05 42° ENE
Shenzhou-11 Module 2.9 17:12:41 10° WNW 17:15:07 34° SW 17:15:18 34° SSW
DMSP B5D2-2 4.2 17:10:53 10° NNE 17:15:56 51° ESE 17:21:04 10° S
H-II Stage 2 4.0 17:17:31 10° SW 17:20:43 28° SSE 17:23:33 23° SE
Cosmos 1420 Rocket 3.8 17:21:51 10° N 17:27:01 85° ENE 17:32:14 10° SSE
Lacrosse 4 Rocket 1.5 17:23:06 10° NNW 17:27:22 74° WSW 17:29:36 27° S
deb Centaur AC-2 4.4 17:24:01 10° WNW 17:29:01 63° SSW 17:30:00 49° SSE
SL-08 ROCKET BODY 4.3 17:24:42 10° N 17:30:30 58° E 17:36:17 10° SSE
SL-24 R/B 3.8 17:34:17 71° W 17:34:17 71° W 17:37:57 10° SSW
Cosmos 1386 Rocket 4.2 17:34:44 10° N 17:40:44 78° E 17:46:52 10° S
CZ-4 R/B 3.7 17:38:05 10° SSW 17:41:23 24° WSW 17:44:37 10° NW
CZ-2C R/B 2.5 17:44:11 54° NNE 17:45:27 88° ESE 17:50:51 10° SSW
ASTRO E2 4.2 17:42:29 10° SW 17:44:51 30° SSW 17:44:51 30° SSW
Cosmos 2278 Rocket 3.9 17:43:18 10° N 17:44:54 19° N 17:44:54 19° N
Meteor 2-5 Rocket 3.6 17:43:24 10° N 17:48:55 86° W 17:54:31 10° S
ATLAS 5 CENTAUR R/B 2.2 17:45:56 10° SSW 17:49:30 51° SW 17:49:30 51° SW
USA 229 DEB 4.1 17:53:47 10° N 17:59:56 53° NNE 17:59:56 53° NNE
USA 229 4.2 17:53:54 10° N 17:59:56 52° NNE 17:59:56 52° NNE
MOS 1 Rocket 3.9 18:01:36 58° NW 18:02:16 64° W 18:07:33 10° SSW
Cosmos 1452 Rocket 4.2 18:00:22 10° NNW 18:05:30 53° WSW 18:06:10 49° SW
Ariane H10-3 4.5 18:07:13 10° WNW 18:19:21 28° NNW 18:19:24 28° NNW
Lacrosse 5 3.7 18:15:32 10° WNW 18:19:50 27° SW 18:20:04 27° SW
FALCON 9 R/B 4.0 18:17:26 10° W 18:21:20 19° SW 18:21:20 19° SW
NOSS 3-1 (C) 4.5 18:33:38 10° NW 18:42:12 66° WSW 18:42:12 66° WSW
